Location: Ottawa
(45.4170°N, 75.7000°W)
Time: 01:35:24
(UTC-04:00)

Iridium 91 - Visible Passes

Search period start: 26 May 2015 00:00
Search period end: 05 June 2015 00:00
Orbit: 776 x 779 km, 86.4° (Epoch: 25 May)

Date Brightness Start Highest point End Pass type
(mag) Time Alt. Az. Time Alt. Az. Time Alt. Az.
26 May 5.5 01:21:46 59° SSW 01:22:42 75° W 01:27:57 10° N visible
27 May 5.7 00:48:16 52° SE 00:49:12 62° E 00:54:22 10° N visible
27 May 7.4 02:28:43 16° W 02:30:29 18° WNW 02:33:54 10° NNW visible
28 May 6.4 00:14:45 32° ESE 00:15:47 35° E 00:20:32 10° NNE visible
28 May 6.7 01:55:13 27° WSW 01:56:36 30° WNW 02:01:09 10° NNW visible
28 May 7.2 23:41:15 19° E 23:42:30 20° E 23:46:19 10° NNE visible
29 May 5.9 01:21:42 44° SW 01:22:52 53° W 01:27:59 10° N visible
29 May 7.7 23:07:49 10° E 23:09:17 11° ENE 23:11:03 10° NE visible
30 May 5.4 00:48:11 57° S 00:49:17 87° E 00:54:32 10° N visible
30 May 7.7 02:28:39 10° W 02:30:54 13° WNW 02:33:02 10° NW visible
31 May 6.0 00:14:40 41° SE 00:15:48 49° E 00:20:51 10° NNE visible
31 May 7.2 01:55:07 19° W 01:56:54 22° WNW 02:00:52 10° NNW visible
31 May 6.7 23:41:08 25° ESE 23:42:27 28° E 23:46:54 10° NNE visible
01 Jun 6.5 01:21:35 31° WSW 01:23:05 37° W 01:27:55 10° NNW visible
01 Jun 7.4 23:07:35 14° E 23:09:11 16° ENE 23:12:26 10° NE visible
02 Jun 5.6 00:48:03 48° SW 00:49:24 67° W 00:54:37 10° N visible
03 Jun 5.5 00:14:30 48° SSE 00:15:52 70° E 00:21:05 10° N visible
03 Jun 7.6 01:54:58 13° W 01:57:16 16° WNW 02:00:19 10° NNW visible
03 Jun 6.3 23:40:57 32° ESE 23:42:27 39° E 23:47:18 10° NNE visible
04 Jun 7.0 01:21:25 22° WSW 01:23:20 27° WNW 01:27:43 10° NNW visible
04 Jun 7.0 23:07:23 19° ESE 23:09:07 23° E 23:13:11 10° NNE visible
